FW6138 Weather Reports


Display with metric or nautical units.
time (UTC)temp
F
wind
direction
speed
MPH
gust
MPH
rain 1hr
in
rain 24hr
in
rain mn
in
humidity
%
barometer
mb
20260508164538 53 302 7.0 14.0 0.00 0.00 0.00 68 1020.8
20260508163030 54 310 9.0 18.0 0.00 0.00 0.00 67 1020.9
20260508161536 55 308 7.0 13.0 0.00 0.00 0.00 67 1020.9
20260508160029 56 305 7.0 15.0 0.00 0.00 0.00 67 1020.9
20260508151532 54 293 7.0 15.0 0.00 0.00 0.00 70 1020.4
20260508150112 54 289 7.0 16.0 0.00 0.00 0.00 70 1020.3
20260508144609 53 279 7.0 17.0 0.00 0.00 0.00 70 1020.0
20260508143030 52 283 4.0 14.0 0.00 0.00 0.00 75 1019.8
20260508141612 50 311 1.0 7.0 0.00 0.00 0.00 81 1019.6
20260508140031 48 133 1.0 7.0 0.00 0.00 0.00 84 1019.5
20260508134531 47 152 2.0 4.0 0.00 0.00 0.00 86 1019.4
20260508130106 44 219 0.0 3.0 0.00 0.00 0.00 88 1018.9
20260508123032 44 190 1.0 3.0 0.00 0.00 0.00 87 1018.9
20260508121530 44 189 1.0 4.0 0.00 0.00 0.00 87 1018.8
20260508120031 44 149 1.0 4.0 0.00 0.00 0.00 88 1018.7
20260508114531 43 193 1.0 5.0 0.00 0.00 0.00 88 1018.7
20260508111532 43 173 0.0 4.0 0.00 0.00 0.00 88 1018.5
20260508110033 43 198 0.0 2.0 0.00 0.00 0.00 88 1018.4
20260508104528 43 195 0.0 3.0 0.00 0.00 0.00 88 1018.4
20260508103030 42 209 1.0 5.0 0.00 0.00 0.00 89 1018.4
20260508101541 41 197 0.0 0.0 0.00 0.00 0.00 88 1018.5
20260508100031 41 180 1.0 3.0 0.00 0.00 0.00 87 1018.4
20260508094532 42 180 1.0 3.0 0.00 0.00 0.00 86 1018.3
20260508093028 42 165 0.0 3.0 0.00 0.00 0.00 85 1018.2
20260508091530 43 185 0.0 3.0 0.00 0.00 0.00 84 1018.2
20260508090030 43 189 0.0 3.0 0.00 0.00 0.00 83 1018.1
20260508083029 44 157 0.0 4.0 0.00 0.00 0.00 81 1018.1
20260508081607 45 157 2.0 3.0 0.00 0.00 0.00 79 1018.2
20260508080029 46 157 1.0 4.0 0.00 0.00 0.00 77 1018.2
20260508074531 46 158 2.0 4.0 0.00 0.00 0.00 75 1018.1
20260508073032 47 162 2.0 4.0 0.00 0.00 0.00 73 1018.1
20260508071531 48 159 3.0 4.0 0.00 0.00 0.00 71 1018.0
20260508070030 48 159 3.0 5.0 0.00 0.00 0.00 71 1018.1
20260508064530 48 271 1.0 4.0 0.00 0.00 0.00 71 1018.0
20260508061532 50 264 1.0 4.0 0.00 0.00 0.00 65 1018.0
20260508054531 49 278 1.0 5.0 0.00 0.00 0.00 63 1018.0
20260508053028 50 309 0.0 5.0 0.00 0.00 0.00 60 1018.1
20260508050029 51 263 2.0 4.0 0.00 0.00 0.00 56 1018.0
20260508044533 52 241 3.0 5.0 0.00 0.00 0.00 55 1018.0
20260508043030 53 231 2.0 4.0 0.00 0.00 0.00 55 1017.8
20260508041607 56 261 2.0 5.0 0.00 0.00 0.00 51 1017.8
20260508040030 57 278 2.0 5.0 0.00 0.00 0.00 48 1017.6
20260508034532 54 264 3.0 10.0 0.00 0.00 0.00 50 1017.5
20260508033029 57 225 1.0 3.0 0.00 0.00 0.00 44 1017.3
20260508030030 63 234 1.0 8.0 0.00 0.00 0.00 32 1017.0
20260508024530 65 291 4.0 10.0 0.00 0.00 0.00 28 1016.9
20260508023028 66 302 5.0 12.0 0.00 0.00 0.00 27 1016.7
20260508021637 67 307 7.0 18.0 0.00 0.00 0.00 26 1016.6
20260508020029 68 305 7.0 15.0 0.00 0.00 0.00 26 1016.6
20260508014530 69 308 8.0 17.0 0.00 0.00 0.00 25 1016.6
20260508013037 70 304 8.0 20.0 0.00 0.00 0.00 25 1016.6
20260508011530 70 297 8.0 18.0 0.00 0.00 0.00 24 1016.6
20260508010031 70 304 8.0 18.0 0.00 0.00 0.00 24 1016.7
20260508004529 70 301 8.0 15.0 0.00 0.00 0.00 23 1016.6
20260508001533 71 303 9.0 21.0 0.00 0.00 0.00 22 1016.5
20260508000032 71 302 9.0 19.0 0.00 0.00 0.00 23 1016.5
20260507234529 71 305 9.0 18.0 0.00 0.00 0.00 24 1016.6
20260507233032 70 301 9.0 21.0 0.00 0.00 0.00 26 1016.6
20260507231537 70 298 8.0 21.0 0.00 0.00 0.00 27 1016.8
20260507230108 70 299 8.0 21.0 0.00 0.00 0.00 29 1016.9
20260507223155 71 303 9.0 19.0 0.00 0.00 0.00 30 1017.1
20260507221530 71 298 9.0 17.0 0.00 0.00 0.00 31 1017.3
20260507220039 71 302 7.0 15.0 0.00 0.00 0.00 33 1017.4
20260507214535 70 306 8.0 19.0 0.00 0.00 0.00 36 1017.5
20260507211541 70 305 8.0 20.0 0.00 0.00 0.00 41 1017.7
20260507210110 70 293 5.0 17.0 0.00 0.00 0.00 42 1017.9
20260507204534 69 304 5.0 13.0 0.00 0.00 0.00 44 1018.0
20260507203038 69 303 6.0 14.0 0.00 0.00 0.00 45 1018.2
20260507201531 68 307 6.0 12.0 0.00 0.00 0.00 46 1018.3
20260507200031 67 300 6.0 12.0 0.00 0.00 0.00 47 1018.5
20260507194607 66 306 8.0 17.0 0.00 0.00 0.00 48 1018.6
20260507193031 65 295 6.0 16.0 0.00 0.00 0.00 50 1018.8
20260507190105 64 305 8.0 16.0 0.00 0.00 0.00 52 1019.2
20260507184533 64 314 9.0 18.0 0.00 0.00 0.00 53 1019.4
20260507183040 63 322 8.0 16.0 0.00 0.00 0.00 54 1019.5
20260507181538 63 324 7.0 14.0 0.00 0.00 0.00 55 1019.7
20260507180110 0 0 0.0 0.0 0.00 0.00 0.00 100
20260507174537 62 317 6.0 14.0 0.00 0.00 0.00 56 1019.9
20260507173028 61 309 4.0 12.0 0.00 0.00 0.00 60 1020.2
20260507171534 60 314 5.0 14.0 0.00 0.00 0.00 62 1020.4